Вернуться в каталог

FREGAT DEB

LostUNKNOWN
NORAD 45887·DEBRIS·🇷🇺 Russia

Запущен Jul 18, 2011 с Baikonur Cosmodrome

Loading…

Ближайшие Пролёты (ближайшие 24 часа)

TLE

УстаревшееSource: Space-Track

Эпоха: Jul 8, 2023, 19:15 UTC

1 45887U 11037DG  23189.80258542  .00331117  00000-0  52944+0 0  9990
2 45887  52.0185 337.4297 1380153 157.4120 350.5773 11.59529448123397

Отслеживайте FREGAT DEB в реальном времени с AllMySat

Download on the App Store